Location: Antichan
(42.9728°N, 0.6667°E)
Time: 19:01:28
(UTC+00:00)

SL-4 R/B - Pass Details

Date: 15 August 2020
Orbit: 428 x 665 km, 51.6° (Epoch: 20 September)

Event Time Altitude Azimuth Distance (km) Brightness Sun altitude
Rises 19:55:33 0° 273° (W) 2,739 6.8 -10.2°
Reaches altitude 10° 19:58:08 10° 286° (WNW) 1,798 6.1 -10.6°
Maximum altitude 20:01:38 27° 345° (NNW) 1,009 3.9 -11.2°
Drops below altitude 10° 20:04:55 10° 45° (NE) 1,679 4.4 -11.7°
Sets 20:07:15 0° 58° (ENE) 2,520 5.1 -12.1°
